Home > Time Zones > World Clock > Weather > Spain > Palma > Past weeks

Flag for Spain Weather past 2 weeks in Palma, Majorca, Spain

Now
75 °F

Sunny.


Feels Like: 77 °F
Forecast: 72 / 90 °F
Wind: 1 mph from Northeast

Location: Palma De Mallorca / Son San Juan

Current Time: Aug 3, 2015 at 9:13:45 AM

Latest Report: Aug 3, 2015 at 8:30 AM


Visibility: 10 mi

Pressure: 30.04 "Hg

Humidity: 74%

Dew point: 66 °F

Location of PalmaLocation

Historic Weather in Palma — Graph

°F

Palma temperature yesterday

Maximum temperature yesterday: 88 °F (at 12:00 PM)
Minimum temperature yesterday: 72 °F (at 6:30 AM)
Average temperature yesterday: 80 °F

Past Weeks' High & Low Weather Summary

 TemperatureHumidityPressure
High93 °F (Jul 20, 11:30 AM)100% (Jul 20, 6:30 AM)30.07 "Hg (Jul 20, 6:30 AM)
Low68 °F (Jul 31, 5:30 AM)34% (Jul 20, 11:30 AM)29.74 "Hg (Jul 31, 7:00 PM)
Average82 °F70%29.93 "Hg
* Reported Jul 19 8:00 AM — Aug 3 8:00 AM, Palma, Weather by CustomWeather, © 2015

Note: Actual official high and low records may vary slightly from our data, if they occured in-between our weather recording intervals... More about our weather records

Advertising

Palma weather history for previous 24 hours

 ConditionsComfort  
Time TempWeatherWind HumidityBarometerVisibility
8:00 AM
Mon, Aug 3
72 °FPassing clouds.3 mph83%30.04 "HgN/A
7:30 AM68 °FClear.2 mph88%30.01 "Hg10 mi
7:00 AM68 °FClear.No wind88%30.01 "Hg10 mi
6:30 AM68 °FPassing clouds.3 mph88%30.01 "HgN/A
6:00 AM68 °FClear.2 mph88%30.01 "Hg10 mi
5:30 AM68 °FClear.3 mph88%30.01 "Hg10 mi
5:00 AM68 °FClear.2 mph88%30.01 "Hg10 mi
4:30 AM68 °FClear.No wind88%30.04 "Hg10 mi
4:00 AM70 °FClear.No wind88%30.04 "Hg10 mi
3:30 AM70 °FClear.2 mph88%30.04 "Hg10 mi
3:00 AM70 °FClear.2 mph88%30.04 "Hg10 mi
2:30 AM72 °FClear.No wind83%30.07 "Hg10 mi
2:00 AM72 °FClear.No wind83%30.07 "Hg10 mi
1:30 AM73 °FClear.1 mph83%30.07 "Hg10 mi
1:00 AM73 °FClear.1 mph83%30.07 "Hg10 mi
12:30 AM77 °FClear.No wind74%30.07 "Hg10 mi
12:00 AM79 °FClear.1 mph70%30.07 "Hg10 mi
11:30 PM
Sun, Aug 2
79 °FClear.2 mph74%30.04 "Hg10 mi
10:30 PM77 °FClear.No wind74%30.04 "Hg10 mi
10:00 PM81 °FSunny.1 mph70%30.04 "Hg10 mi
9:30 PM81 °FSunny.3 mph70%30.01 "Hg10 mi
9:00 PM81 °FSunny.5 mph70%30.01 "Hg10 mi
8:30 PM81 °FSunny.7 mph70%30.01 "Hg10 mi
8:00 PM82 °FPassing clouds.8 mph66%30.01 "HgN/A
7:30 PM82 °FPassing clouds.10 mph66%30.01 "HgN/A
7:00 PM84 °FPassing clouds.12 mph66%30.01 "HgN/A
6:30 PM84 °FPassing clouds.14 mph62%30.01 "HgN/A
6:00 PM84 °FPassing clouds.15 mph62%30.01 "HgN/A
5:30 PM86 °FPassing clouds.14 mph59%30.01 "HgN/A
5:00 PM86 °FPassing clouds.14 mph59%30.01 "HgN/A
4:30 PM86 °FPassing clouds.13 mph59%30.01 "HgN/A
4:00 PM86 °FPassing clouds.14 mph59%30.04 "HgN/A
3:30 PM86 °FPassing clouds.15 mph55%30.04 "HgN/A
3:00 PM86 °FPassing clouds.15 mph59%30.04 "HgN/A
2:30 PM86 °FPassing clouds.15 mph59%30.04 "HgN/A
2:00 PM86 °FPassing clouds.14 mph59%30.04 "HgN/A
1:30 PM84 °FPassing clouds.15 mph62%30.04 "HgN/A
1:00 PM86 °FPassing clouds.14 mph55%30.04 "HgN/A
12:30 PM86 °FPassing clouds.12 mph52%30.04 "HgN/A
12:00 PM88 °FPassing clouds.2 mph46%30.04 "HgN/A
11:30 AM86 °FPassing clouds.5 mph49%30.04 "HgN/A
11:00 AM84 °FPassing clouds.6 mph51%30.04 "HgN/A
10:30 AM82 °FPassing clouds.7 mph55%30.04 "HgN/A
10:00 AM81 °FSunny.8 mph58%30.04 "Hg10 mi
9:30 AM81 °FPassing clouds.9 mph62%30.04 "HgN/A
9:00 AM79 °FPassing clouds.7 mph61%30.04 "HgN/A
Weather by CustomWeather, © 2015

See weather overviewHow to use our weather pages